TimeEDT,TemperatureF,Dew PointF,Humidity,Sea Level PressureIn,VisibilityMPH,Wind Direction,Wind SpeedMPH,Gust SpeedMPH,PrecipitationIn,Events,Conditions,WindDirDegrees,DateUTC
12:53 AM,28.9,24.1,82,29.73,10.0,SSW,6.9,-,N/A,,Clear,210,2013-10-24 04:53:00
1:53 AM,30.0,24.1,79,29.72,10.0,SSW,6.9,-,N/A,,Clear,210,2013-10-24 05:53:00
2:53 AM,30.9,25.0,79,29.72,10.0,SW,8.1,-,N/A,,Scattered Clouds,220,2013-10-24 06:53:00
3:53 AM,28.9,24.1,82,29.71,10.0,SW,4.6,-,N/A,,Clear,220,2013-10-24 07:53:00
4:53 AM,28.9,25.0,85,29.71,10.0,SW,8.1,-,N/A,,Clear,220,2013-10-24 08:53:00
5:53 AM,28.9,25.0,85,29.71,10.0,SW,6.9,-,N/A,,Clear,220,2013-10-24 09:53:00
6:53 AM,28.9,26.1,89,29.72,10.0,SW,4.6,-,N/A,,Clear,220,2013-10-24 10:53:00
7:53 AM,28.9,27.0,92,29.74,10.0,SW,5.8,-,N/A,,Clear,220,2013-10-24 11:53:00
8:17 AM,30.2,28.4,93,29.73,10.0,SSW,8.1,-,N/A,,Mostly Cloudy,210,2013-10-24 12:17:00
8:44 AM,33.8,30.2,87,29.73,10.0,SW,9.2,-,N/A,,Mostly Cloudy,230,2013-10-24 12:44:00
8:53 AM,34.0,30.9,89,29.74,10.0,SW,10.4,-,N/A,,Mostly Cloudy,220,2013-10-24 12:53:00
9:53 AM,37.9,33.1,83,29.75,10.0,WSW,10.4,-,0.00,Rain,Light Rain,240,2013-10-24 13:53:00
10:19 AM,37.4,33.8,87,29.74,10.0,WSW,11.5,19.6,0.00,Rain,Light Rain,240,2013-10-24 14:19:00
10:53 AM,39.0,30.9,73,29.75,10.0,WSW,13.8,20.7,0.00,Rain,Light Rain,250,2013-10-24 14:53:00
11:39 AM,41.0,30.2,65,29.74,10.0,West,18.4,23.0,0.00,,Overcast,270,2013-10-24 15:39:00
11:53 AM,41.0,30.9,67,29.75,10.0,WSW,11.5,-,0.00,Rain,Light Rain,250,2013-10-24 15:53:00
12:02 PM,41.0,30.2,65,29.74,10.0,WSW,12.7,-,N/A,,Overcast,240,2013-10-24 16:02:00
12:13 PM,42.8,30.2,61,29.73,10.0,WSW,13.8,21.9,N/A,,Overcast,240,2013-10-24 16:13:00
12:23 PM,42.8,30.2,61,29.73,10.0,West,16.1,24.2,N/A,,Overcast,270,2013-10-24 16:23:00
12:33 PM,42.8,28.4,57,29.73,10.0,West,16.1,-,N/A,,Overcast,270,2013-10-24 16:33:00
12:53 PM,44.1,30.0,58,29.75,10.0,West,16.1,24.2,N/A,,Overcast,260,2013-10-24 16:53:00
1:53 PM,43.0,30.9,62,29.75,10.0,West,17.3,23.0,N/A,,Overcast,280,2013-10-24 17:53:00
2:53 PM,45.0,30.9,58,29.75,10.0,West,11.5,18.4,0.00,,Overcast,260,2013-10-24 18:53:00
3:53 PM,43.0,28.9,58,29.78,10.0,West,12.7,-,N/A,,Overcast,280,2013-10-24 19:53:00
4:53 PM,43.0,28.9,58,29.81,10.0,West,16.1,20.7,N/A,,Overcast,280,2013-10-24 20:53:00
5:53 PM,43.0,28.9,58,29.83,10.0,West,12.7,-,N/A,,Overcast,260,2013-10-24 21:53:00
6:53 PM,42.1,30.0,62,29.86,10.0,West,10.4,-,N/A,,Overcast,270,2013-10-24 22:53:00
7:53 PM,42.1,30.9,65,29.88,10.0,West,12.7,-,N/A,,Overcast,270,2013-10-24 23:53:00
8:53 PM,39.9,30.9,70,29.89,10.0,West,10.4,-,N/A,,Overcast,280,2013-10-25 00:53:00
9:53 PM,39.9,30.9,70,29.90,10.0,West,10.4,-,N/A,,Mostly Cloudy,280,2013-10-25 01:53:00
10:53 PM,39.0,30.9,73,29.91,10.0,West,10.4,-,N/A,,Overcast,260,2013-10-25 02:53:00
11:53 PM,37.9,30.9,76,29.93,10.0,West,8.1,-,N/A,,Overcast,270,2013-10-25 03:53:00